Weather History for Melfa, VA

Change the Weather History Date:

Saturday, October 26, 2013

  Actual Average (KWAL) Record (KWAL)
Temperature  
Mean Temperature 50 °F 56 °F  
Max Temperature 64 °F 65 °F 76 °F (1984)
Min Temperature 37 °F 47 °F 33 °F (2013)
Degree Days  
Heating Degree Days 14    
Month to date heating degree days  
Since 1 July heating degree days  
Cooling Degree Days 0    
Month to date cooling degree days  
Year to date cooling degree days  
Moisture  
Dew Point 36 °F    
Average Humidity 61    
Maximum Humidity 93    
Minimum Humidity 32    
Precipitation  
Precipitation 0.00 in 0.10 in 1.17 in (2002)
Month to date precipitation 2.62  
Year to date precipitation 33.99  
Sea Level Pressure  
Sea Level Pressure 30.19 in    
Wind  
Wind Speed 5 mph (SW)    
Max Wind Speed 20 mph    
Max Gust Speed 28 mph    
Visibility 10 miles    
Events      
T = Trace of Precipitation, MM = Missing Value Source: NWS Daily Summary

Daily Weather History Graph

Daily Weather History Graph

Search for Another Location

Airport:

Trip Planner

Search our weather history database for the weather conditions in past years. The results will help you decide how hot, cold, wet, or windy it might be!

Date:

Astronomy

Oct. 26, 2013 Rise Set
Actual Time 7:22 AM EDT 6:11 PM EDT
Civil Twilight 6:55 AM EDT 6:37 PM EDT
Nautical Twilight 6:24 AM EDT 7:08 PM EDT
Astronomical Twilight 5:54 AM EDT 7:39 PM EDT
Moon No Moon Rise 1:36 PM EDT (10/26)
Length of Visible Light 11h 42m
Length of Day
10h 48m
Waning Gibbous, 53% of the Moon is Illuminated
Oct 26
Waning Gibbous
Oct 26
Last Quarter
Nov 3
New
Nov 10
First Quarter
Nov 17
Full

Hourly Weather History & Observations

Time (EDT) Temp. Windchill Dew Point Humidity Pressure Visibility Wind Dir Wind Speed Gust Speed Precip Events Conditions
12:15 AM 42.8 °F - 37.4 °F 81% 30.31 in 10.0 mi Calm Calm - N/A   Clear
12:35 AM 41.0 °F 39.0 °F 37.4 °F 87% 30.31 in 10.0 mi NE 3.5 mph - N/A   Clear
12:55 AM 41.0 °F - 37.4 °F 87% 30.31 in 10.0 mi Calm Calm - N/A   Clear
1:16 AM 41.0 °F - 37.4 °F 87% 30.31 in 10.0 mi Calm Calm - N/A   Clear
1:35 AM 41.0 °F - 37.4 °F 87% 30.31 in 10.0 mi Calm Calm - N/A   Clear
1:55 AM 39.2 °F - 35.6 °F 87% 30.31 in 10.0 mi Calm Calm - N/A   Clear
2:15 AM 39.2 °F - 37.4 °F 93% 30.31 in 10.0 mi Calm Calm - N/A   Clear
2:35 AM 39.2 °F 37.0 °F 37.4 °F 93% 30.31 in 10.0 mi NE 3.5 mph - N/A   Clear
2:55 AM 39.2 °F 35.9 °F 37.4 °F 93% 30.30 in 10.0 mi NE 4.6 mph - N/A   Clear
3:15 AM 39.2 °F 35.9 °F 35.6 °F 87% 30.29 in 10.0 mi NE 4.6 mph - N/A   Clear
3:36 AM 39.2 °F 37.0 °F 37.4 °F 93% 30.29 in 10.0 mi ENE 3.5 mph - N/A   Clear
3:55 AM 39.2 °F - 37.4 °F 93% 30.29 in 10.0 mi Calm Calm - N/A   Clear
4:17 AM 39.2 °F 37.0 °F 35.6 °F 87% 30.29 in 10.0 mi ENE 3.5 mph - N/A   Clear
4:35 AM 39.2 °F - 37.4 °F 93% 30.29 in 10.0 mi Calm Calm - N/A   Clear
4:55 AM 39.2 °F - 35.6 °F 87% 30.29 in 10.0 mi Calm Calm - N/A   Clear
5:15 AM 39.2 °F - 35.6 °F 87% 30.30 in 10.0 mi Calm Calm - N/A   Clear
5:35 AM 39.2 °F - 35.6 °F 87% 30.30 in 10.0 mi Calm Calm - N/A   Clear
5:55 AM 37.4 °F 34.9 °F 35.6 °F 93% 30.29 in 10.0 mi ENE 3.5 mph - N/A   Clear
6:17 AM 37.4 °F - 35.6 °F 93% 30.30 in 10.0 mi Calm Calm - N/A   Clear
6:36 AM 37.4 °F - 35.6 °F 93% 30.29 in 10.0 mi Calm Calm - N/A   Clear
6:55 AM 37.4 °F - 35.6 °F 93% 30.29 in 10.0 mi Calm Calm - N/A   Clear
7:16 AM 37.4 °F - 35.6 °F 93% 30.29 in 10.0 mi Calm Calm - N/A   Clear
7:35 AM 37.4 °F 34.9 °F 35.6 °F 93% 30.29 in 10.0 mi East 3.5 mph - N/A   Clear
7:55 AM 37.4 °F - 35.6 °F 93% 30.29 in 10.0 mi Calm Calm - N/A   Clear
8:15 AM 39.2 °F - 35.6 °F 87% 30.29 in 10.0 mi Calm Calm - N/A   Clear
8:35 AM 41.0 °F - 39.2 °F 93% 30.29 in 10.0 mi Calm Calm - N/A   Clear
8:56 AM 46.4 °F - 42.8 °F 87% 30.29 in 10.0 mi Calm Calm - N/A   Clear
9:16 AM 51.8 °F - 44.6 °F 76% 30.29 in 10.0 mi Calm Calm - N/A   Clear
9:35 AM 55.4 °F - 39.2 °F 54% 30.29 in 10.0 mi Calm Calm - N/A   Clear
10:15 AM 57.2 °F - 39.2 °F 51% 30.28 in 10.0 mi South 4.6 mph - N/A   Clear
10:35 AM 60.8 °F - 39.2 °F 45% 30.27 in 10.0 mi SW 9.2 mph - N/A   Clear
10:55 AM 60.8 °F - 37.4 °F 42% 30.26 in 10.0 mi SW 8.1 mph - N/A   Clear
11:15 AM - - - N/A% 30.25 in - SW 10.4 mph - N/A   Unknown
11:36 AM - - - N/A% - - North - - N/A   Unknown
11:56 AM 62.6 °F - 37.4 °F 39% 30.23 in 10.0 mi WSW 12.7 mph - N/A   Clear
12:15 PM 64.4 °F - 37.4 °F 37% 30.22 in 10.0 mi South 8.1 mph - N/A   Scattered Clouds
12:35 PM 62.6 °F - 35.6 °F 37% 30.21 in 10.0 mi SW 11.5 mph 18.4 mph N/A   Scattered Clouds
12:55 PM 64.4 °F - 33.8 °F 32% 30.20 in 10.0 mi SSW 17.3 mph 21.9 mph N/A   Clear
1:16 PM 64.4 °F - 33.8 °F 32% 30.18 in 10.0 mi SW 16.1 mph 24.2 mph N/A   Clear
1:35 PM 64.4 °F - 33.8 °F 32% 30.17 in 10.0 mi SSW 19.6 mph 27.6 mph N/A   Clear
1:55 PM 64.4 °F - 33.8 °F 32% 30.16 in 10.0 mi SSW 17.3 mph 25.3 mph N/A   Clear
2:15 PM 64.4 °F - 35.6 °F 34% 30.15 in 10.0 mi SW 16.1 mph 25.3 mph N/A   Clear
2:35 PM 64.4 °F - 35.6 °F 34% 30.14 in 10.0 mi SSW 17.3 mph 25.3 mph N/A   Clear
2:55 PM 64.4 °F - 37.4 °F 37% 30.13 in 10.0 mi SSW 19.6 mph 25.3 mph N/A   Clear
3:17 PM 64.4 °F - 37.4 °F 37% 30.12 in 10.0 mi SW 16.1 mph 24.2 mph N/A   Clear
3:35 PM 64.4 °F - 35.6 °F 34% 30.11 in 10.0 mi SW 16.1 mph 25.3 mph N/A   Clear
3:55 PM 64.4 °F - 35.6 °F 34% 30.10 in 10.0 mi SW 13.8 mph 19.6 mph N/A   Clear
4:15 PM 64.4 °F - 35.6 °F 34% 30.10 in 10.0 mi SW 17.3 mph 21.9 mph N/A   Clear
4:35 PM 64.4 °F - 35.6 °F 34% 30.09 in 10.0 mi SW 6.9 mph 18.4 mph N/A   Clear
4:55 PM 64.4 °F - 35.6 °F 34% 30.08 in 10.0 mi SW 9.2 mph 17.3 mph N/A   Clear
5:15 PM 62.6 °F - 33.8 °F 34% 30.07 in 10.0 mi SW 8.1 mph - N/A   Clear
5:35 PM 62.6 °F - 32.0 °F 32% 30.07 in 10.0 mi SW 9.2 mph 16.1 mph N/A   Clear
5:55 PM 60.8 °F - 33.8 °F 36% 30.06 in 10.0 mi SSW 9.2 mph - N/A   Clear
6:15 PM 57.2 °F - 35.6 °F 44% 30.06 in 10.0 mi SW 8.1 mph - N/A   Clear
6:35 PM 55.4 °F - 35.6 °F 47% 30.05 in 10.0 mi SSW 6.9 mph - N/A   Clear
6:55 PM 55.4 °F - 35.6 °F 47% 30.05 in 10.0 mi SSW 6.9 mph - N/A   Clear
7:15 PM 53.6 °F - 35.6 °F 51% 30.05 in 10.0 mi SSW 6.9 mph - N/A   Clear
7:35 PM 53.6 °F - 35.6 °F 51% 30.06 in 10.0 mi SW 6.9 mph - N/A   Clear
7:55 PM 53.6 °F - 35.6 °F 51% 30.05 in 10.0 mi SW 6.9 mph - N/A   Clear
8:15 PM 53.6 °F - 35.6 °F 51% 30.05 in 10.0 mi SW 9.2 mph - N/A   Clear
8:36 PM 53.6 °F - 35.6 °F 51% 30.05 in 10.0 mi SW 8.1 mph - N/A   Clear
8:55 PM 53.6 °F - 35.6 °F 51% 30.04 in 10.0 mi SW 5.8 mph - N/A   Clear
9:15 PM 51.8 °F - 37.4 °F 58% 30.04 in 10.0 mi SW 8.1 mph - N/A   Clear
9:35 PM 53.6 °F - 35.6 °F 51% 30.04 in 10.0 mi SW 8.1 mph - N/A   Clear
9:55 PM 53.6 °F - 35.6 °F 51% 30.04 in 10.0 mi WSW 8.1 mph - N/A   Clear
10:15 PM 57.2 °F - 35.6 °F 44% 30.03 in 10.0 mi WSW 10.4 mph 16.1 mph N/A   Scattered Clouds
10:35 PM 59.0 °F - 33.8 °F 39% 30.03 in 10.0 mi WSW 11.5 mph 18.4 mph N/A   Scattered Clouds
10:55 PM 59.0 °F - 33.8 °F 39% 30.03 in 10.0 mi WSW 10.4 mph - N/A   Mostly Cloudy
11:15 PM 60.8 °F - 35.6 °F 39% 30.02 in 10.0 mi WSW 13.8 mph 18.4 mph N/A   Overcast
11:35 PM 60.8 °F - 35.6 °F 39% 30.02 in 10.0 mi WSW 12.7 mph 18.4 mph N/A   Overcast
11:55 PM 60.8 °F - 35.6 °F 39% 30.01 in 10.0 mi WSW 11.5 mph 16.1 mph N/A   Overcast